Regional Weather Roundup
Issued by NWS

Home | Current Version | Previous Version | Graphics & Text | Print | Product List | Glossary On
Versions: 1 2 3 4 5 6 7 8 9 10 11 12 13 14 15 16 17 18 19 20 21 22 23 24 25 26 27 28 29 30 31 32 33 34 35 36 37 38 39 40 41 42 43 44 45 46 47 48 49 50
391
ASUS43 KLSX 271807
RWRMO

WEATHER SUMMARY FOR MISSOURI
NATIONAL WEATHER SERVICE SPRINGFIELD MO
100 PM CDT TUE SEP 27 2016

NOTE: "FAIR" INDICATES FEW OR NO CLOUDS BELOW 12,000 FEET WITH NO
       SIGNIFICANT WEATHER AND/OR OBSTRUCTIONS TO VISIBILITY.
       CURRENT SKY AND/OR WEATHER CONDITIONS ARE NOT AVAILABLE FOR
       CHILLICOTHE AND FARMINGTON.

MOZ001>031-035>038-043-044-053-054-271900-
...NORTHERN AND WESTERN MISSOURI...

CITY           SKY/WX    TMP DP  RH WIND       PRES   REMARKS
KANSAS CTY INT SUNNY     73  51  46 SW5       30.00F
6HR MIN TEMP:  50; 6HR MAX TEMP:  73;

KANSAS C DTWN  SUNNY     75  51  43 MISG      29.98F
LEE`S SUMMIT   SUNNY     74  51  44 W7        30.00F
6HR MIN TEMP:  55; 6HR MAX TEMP:  74;

ST JOSEPH      SUNNY     74  49  41 VRB5      29.98F
6HR MIN TEMP:  50; 6HR MAX TEMP:  74;

CHILLICOTHE      N/A     76  50  40 W8        29.97F
6HR MIN TEMP:  48; 6HR MAX TEMP:  76;

KIRKSVILLE     SUNNY     74  43  32 W10G22    29.95F
6HR MIN TEMP:  48; 6HR MAX TEMP:  74;


$$
MOZ066>068-077>081-088>096-101>105-271900-
...SOUTHWEST MISSOURI...

CITY           SKY/WX    TMP DP  RH WIND       PRES   REMARKS
SPRINGFIELD    SUNNY     77  44  30 W13       30.05F
6HR MIN TEMP:  48; 6HR MAX TEMP:  77;

JOPLIN         SUNNY     76  49  38 W10       30.06F
6HR MIN TEMP:  47; 6HR MAX TEMP:  76;

BRANSON        MOSUNNY   72  46  40 W6        30.09F

$$
MOZ032>034-039>042-045>050-055>058-069>072-271900-
...CENTRAL MISSOURI...

CITY           SKY/WX    TMP DP  RH WIND       PRES   REMARKS
COLUMBIA       SUNNY     75  48  38 SW12      29.98F
6HR MIN TEMP:  54; 6HR MAX TEMP:  75;

JEFFERSON CITY SUNNY     76  46  34 W12       29.97F
6HR MIN TEMP:  51; 6HR MAX TEMP:  77;

ROLLA          SUNNY     74  48  39 W13       30.00F
6HR MIN TEMP:  49; 6HR MAX TEMP:  75;

SEDALIA        SUNNY     78  48  34 W10       30.00F
6HR MIN TEMP:  53; 6HR MAX TEMP:  78;

WHITEMAN AFB   SUNNY     76  52  42 W9        29.98F
OSAGE BEACH    SUNNY     75  50  41 SW12      30.02F

$$
MOZ051-052-059>065-271900-
...EAST CENTRAL MISSOURI...

CITY           SKY/WX    TMP DP  RH WIND       PRES   REMARKS
ST LOUIS INTL  MOSUNNY   78  47  33 SW12G17   29.96F
6HR MIN TEMP:  57; 6HR MAX TEMP:  78;

SPIRIT OF STL  SUNNY     77  50  38 W9        29.95F
6HR MIN TEMP:  53; 6HR MAX TEMP:  77;

ST CHARLES     SUNNY     77  46  33 W10G17    29.94F
6HR MIN TEMP:  48; 6HR MAX TEMP:  77;


$$
MOZ072>076-082>087-097>100-106>115-271900-
...SOUTH CENTRAL AND SOUTHEAST MISSOURI...

CITY           SKY/WX    TMP DP  RH WIND       PRES   REMARKS
CAPE GIRARDEAU SUNNY     77  49  37 W6        29.99F
6HR MIN TEMP:  45; 6HR MAX TEMP:  77;

FARMINGTON     SUNNY     74  48  39 W12G18    30.01F
6HR MIN TEMP:  45; 6HR MAX TEMP:  74;

POPLAR BLUFF   SUNNY     77  47  34 NW6       30.01F
6HR MIN TEMP:  49; 6HR MAX TEMP:  78;

WEST PLAINS    SUNNY     75  47  36 W10       30.07F
6HR MIN TEMP:  47; 6HR MAX TEMP:  75;


$$



USA.gov is the U.S. government's official web portal to all federal, state and local government web resources and services.